Simultaneous Nadir Overpasses (SNOs) Predictions

Prediction of SNOs between NOAA-20 and LANDSAT-8 Satellite Orbit:

Table of predicted SNOs for the next 14.0 days since TLE Epoch: 7/16/2022
Index Date (NOAA-20) Time (NOAA-20) Lat,Lon (NOAA-20) SZA (NOAA-20 ) Date (LANDSAT-8) Time (LANDSAT-8) Lat,Lon (LANDSAT-8) SZA (LANDSAT-8 ) Distance(km) Time Diff (sec)
1 07/16/2022 15:06:22 70.11, -50.23 48.81 07/16/2022 15:06:51 70.10, -50.18 48.79 2.32 29
2 07/16/2022 15:57:03 -69.96, 117.31 131.34 07/16/2022 15:56:21 -69.99, 117.30 131.31 2.98 42
3 07/19/2022 06:32:40 -70.68,-102.66 130.13 07/19/2022 06:33:49 -70.57,-101.27 130.31 52.91 69
4 07/19/2022 07:23:14 70.05, 65.64 49.21 07/19/2022 07:23:24 70.03, 65.59 49.19 2.78 10
5 07/19/2022 08:13:56 -69.95,-126.90 130.89 07/19/2022 08:12:53 -69.97,-126.85 130.86 3.24 63
6 07/21/2022 22:49:23 -70.14, 13.96 130.19 07/21/2022 22:50:28 -70.16, 14.00 130.19 2.20 65
7 07/21/2022 23:40:07 70.04,-178.58 49.71 07/21/2022 23:39:55 70.05,-178.51 49.72 2.91 12
8 07/22/2022 00:30:42 -69.57, -10.56 130.78 07/22/2022 00:29:31 -69.61, -11.48 130.69 35.69 71
9 07/24/2022 15:06:15 -70.09, 129.82 129.70 07/24/2022 15:07:00 -70.11, 129.81 129.68 2.93 45
10 07/24/2022 15:56:59 69.98, -62.72 50.20 07/24/2022 15:56:27 70.00, -62.70 50.22 1.99 32
11 07/27/2022 06:32:41 71.03, 76.76 51.88 07/27/2022 06:33:47 70.92, 79.26 51.67 91.27 66
12 07/27/2022 07:23:07 -70.08,-114.40 129.12 07/27/2022 07:23:31 -70.05,-114.39 129.15 3.40 24
13 07/27/2022 08:13:50 69.93, 53.14 50.74 07/27/2022 08:12:58 69.94, 53.09 50.75 1.94 52
14 07/29/2022 22:49:19 70.25,-166.19 51.67 07/29/2022 22:50:31 70.19,-165.96 51.60 10.86 72
15 07/29/2022 23:39:59 -70.03, 1.45 128.54 07/29/2022 23:40:02 -70.03, 1.46 128.55 0.24 3
16 07/30/2022 00:30:42 69.88, 168.99 51.31 07/30/2022 00:29:29 69.92, 168.94 51.36 4.27 73



Historial Predications of SNOs between NOAA-20 and LANDSAT-8
